Flag for Germany Weather past 2 weeks in Kulmbach, Bavaria, Germany

32 °F

Low clouds.

Feels Like: 32 °F
Forecast: 24 / 39 °F
Wind: 2 mph from West

Location: Hof

Current Time: Nov 26, 2015 at 2:15:38 AM

Latest Report: Nov 26, 2015 at 1:00 AM

Visibility: 6 mi

Pressure: 29.78 "Hg

Humidity: 92%

Dew point: 30 °F

Location of KulmbachLocation

Historic Weather in Kulmbach — Graph


Kulmbach temperature yesterday

Maximum temperature yesterday: 33 °F (at 3:00 PM)
Minimum temperature yesterday: 29 °F (at 2:00 AM)
Average temperature yesterday: 31 °F

Past Weeks' High & Low Weather Summary

High54 °F (Nov 18, 3:00 AM)99% (Nov 15, 8:00 AM)30.36 "Hg (Nov 15, 8:00 AM)
Low27 °F (Nov 24, 12:00 AM)55% (Nov 16, 3:00 PM)29.41 "Hg (Nov 21, 12:00 PM)
Average41 °F86%29.97 "Hg
* Reported Nov 11 1:00 AM — Midnight between Nov 25 and Nov 26, Kulmbach, Weather by CustomWeather, © 2015

Note: Actual official high and low records may vary slightly from our data, if they occured in-between our weather recording intervals... More about our weather records


Kulmbach weather history for previous 24 hours

Time TempWeatherWind HumidityBarometerVisibility
12:00 AM
Thu, Nov 26
32 °FLow clouds.1 mph92%29.78 "Hg6 mi
11:00 PM
Wed, Nov 25
32 °FLow clouds.3 mph93%29.78 "Hg7 mi
10:00 PM32 °FLow clouds.5 mph93%29.78 "Hg6 mi
9:00 PM32 °FLow clouds.3 mph94%29.76 "Hg6 mi
8:00 PM33 °FLow clouds.3 mph93%29.75 "Hg7 mi
7:00 PM33 °FLight snow. Low clouds.2 mph92%29.74 "Hg5 mi
6:00 PM33 °FLight snow. Low clouds.3 mph92%29.73 "Hg5 mi
5:00 PM33 °FLight snow. Low clouds.3 mph91%29.74 "Hg5 mi
4:00 PM33 °FLight snow. Low clouds.2 mph89%29.74 "Hg9 mi
3:00 PM33 °FSnow flurries. Low clouds.3 mph88%29.74 "Hg11 mi
2:00 PM33 °FDrizzle. Low clouds.5 mph90%29.74 "Hg9 mi
1:00 PM33 °FLow clouds.3 mph91%29.75 "Hg7 mi
12:00 PM32 °FDrizzle. Low clouds.3 mph90%29.78 "Hg6 mi
11:00 AM32 °FLow clouds.5 mph90%29.79 "Hg7 mi
9:00 AM31 °FSnow flurries. Low clouds.5 mph91%29.80 "Hg4 mi
7:00 AM30 °FSnow flurries. Low clouds.3 mph89%29.80 "Hg7 mi
5:00 AM29 °FSnow flurries. Low clouds.5 mph87%29.83 "Hg4 mi
3:00 AM30 °FLow clouds.7 mph86%29.86 "Hg7 mi
2:00 AM29 °FLight snow. Low clouds.6 mph90%29.89 "Hg3 mi
Weather by CustomWeather, © 2015

See weather overviewHow to use our weather pages